SCP
0 0 0 0 0 0 0 0 0 0 0 0 0 0 0 0 0 0 0 0 0 0 0 0 0 0 0 0 0 0 0 0 0 0 0 0 0 0
0 0 0 0 0 0 0 0 0 0 0 0 0 0 0 0 0 0 0 0 0 0 0 0 0 0 0 0 0 0 0 0 0 0 0 0 0 0
0 0 0 0 0 0 0 0 0 0 0 0 0 0 0 0 0 0 0 0 0 0 0 0 0 0 0 0 0 0 0 0 0 0 0 0 0 0
0 0 0 0 0 0 0 0 0 0 0 0 0 0 0 0 0 0 0 0 0 0 0 0 0 0 0 0 0 0 0 0 0 0 0 0 0 0
0 0 0 0 0 0 0 0 0 0 0 0 0 0 0 0 0 0 0 0 0 0 0 0 0 0 0 0 0 0 0 0 0 0 0 0 0 0
0 0 0 0 0 0 0 0 0 0 0 0 0 0 0 0 0 0 0 0 0 0 0 0 0 0 0 0 0 0 0 0 0 0 0 0 0 0
0 0 0 0 0 0 0 0 0 0 0 0 0 0 0 0 0 0 0 0 0 0 0 0 0 0 0 0 0 0 0 0 0 0 0 0 0 0
0 0 0 0 0 0 0 0 0 0 0 0 0 0 0 0 0 0 0 0 0 0 0 0 0 0 0 0 0 0 0 0 0 0 0 0 0 0
0 0 0 0 0 0 0 0 0 0 0 0 0 0 0 0 0 0 0 0 0 0 0 0 0 0 0 0 0 0 0 0 0 0 0 0 0 0
0 0 0 0 0 0 0 0 0 0 0 0 0 0 0 0 0 0 0 0 0 0 0 0 0 0 0 0 0 0 0 0 0 0 0 0 0 0
0 0 0 0 0 0 0 0 0 0 0 0 0 0 0 0 0 0 0 0 0 0 0 0 0 0 0 0 0 0 0 0 0 0 0 0 0 0
0 0 0 0 0 0 0 0 0 0 0 0 0 0 0 0 0 0 0 0 0 0 0 0 0 0 0 0 0 0 0 0 0 0 0 0 0 0
0 0 0 0 0 0 0 0 0 0 0 0 0 0 0 0 0 0 0 0 0 0 0 0 0 0 0 0 0 0 0 0 0 0 0 0 0 0
0 0 0 0 0 0 0 0 0 0 0 0 0 0 0 0 0 0 0 0 0 0 0 0 0 0 0 0 0 0 0 0 0 0 0 0 0 0
0 0 0 0 0 0 0 0 0 0 0 0 0 0 0 0 0 0 0 0 0 0 0 0 0 0 0 0 0 0 0 0 0 0 0 0 0 0
0 0 0 0 0 0 0 0 0 0 0 0 0 0 0 0 0 0 0 0 0 0 0 0 0 0 0 0 0 0 0 0 0 0 0 0 0 0
0 0 0 0 0 0 0 0 0 0 0 0 0 0 0 0 0 0 0 0 0 0 0 0 0 0 0 0 0 0 0 0 0 0 0 0 0 0
0 0 0 0 0 0 0 0 0 0 0 0 0 0 0 0 0 0 0 0 0 0 0 0 0 0 0 0 0 0 0 0 0 0 0 0 0 0
0 0 0 0 0 0 0 0 0 0 0 0 0 0 0 0 0 0 0 0 0 0 0 0 0 0 0 0 0 0 0 0 0 0 0 0 0 0
0 0 0 0 0 0 0 0 0 0 0 0 0 0 0 0 0 0 0 0 0 0 0 0 0 0 0 0 0 0 0 0 0 0 0 0 0 0
0 0 0 0 0 0 0 0 0 0 0 0 0 0 0 0 0 0 0 0 0 0 0 0 0 0 0 0 0 0 0 0 0 0 0 0 0 0
0 0 0 0 0 0 0 0 0 0 0 0 0 0 0 0 0 0 0 0 0 0 0 0 0 0 0 0 0 0 0 0 0 0 0 0 0 0
0 0 0 0 0 0 0 0 0 0 0 0 0 0 0 0 0 0 0 0 0 0 0 0 0 0 0 0 0 0 0 0 0 0 0 0 0 0
Wind_Speed
2 2 2 1 2 1 1 2 3 3 4 3 2 1 1 1 1 1 1 1 2 2 2 3 4 4 4 4 4 5 6 5 5 5 5 6 6 7
1 2 2 2 2 1 1 2 2 3 3 2 2 1 1 1 1 1 1 2 2 2 3 3 4 4 5 5 5 5 5 5 5 5 5 6 6 7
2 2 3 2 2 1 1 2 2 2 4 2 1 1 2 2 2 2 2 2 1 2 3 3 4 5 5 5 5 5 5 5 5 6 6 6 6 7
2 2 3 2 2 1 1 2 2 2 2 3 1 1 2 2 2 2 1 1 1 3 3 4 4 4 4 4 4 4 5 5 5 6 6 6 6 6
2 3 3 2 3 2 2 2 2 2 1 2 2 1 1 1 1 2 1 1 2 3 4 4 4 5 5 4 5 5 5 5 5 5 5 5 6 6
3 3 3 3 3 3 2 2 2 2 1 2 2 2 1 1 1 2 2 1 2 2 3 4 4 5 5 4 4 4 4 5 5 5 5 5 5 5
3 3 3 3 4 3 3 3 2 2 2 2 2 2 2 2 2 2 2 2 2 1 2 2 2 3 3 4 4 5 5 5 5 5 5 5 5 5
3 2 3 2 3 3 4 4 4 3 3 3 3 4 4 3 2 2 2 2 3 1 1 3 2 3 3 2 5 6 6 6 5 4 5 5 5 5
3 3 2 2 2 2 2 3 3 4 5 4 4 5 4 3 3 3 3 3 3 2 1 4 2 3 3 4 7 7 6 6 5 5 5 5 5 5
3 3 3 3 3 3 2 3 3 3 4 3 3 4 3 3 3 4 3 2 3 2 1 3 3 3 3 4 7 7 7 7 7 7 6 6 5 5
3 3 3 3 5 4 3 4 4 3 3 4 4 5 4 4 3 1 2 2 3 2 1 2 2 3 3 3 4 6 7 7 7 7 6 6 6 5
2 3 4 4 5 5 4 4 5 4 3 3 3 3 3 3 3 3 3 3 3 3 1 1 1 1 3 3 2 2 3 6 7 7 7 6 6 3
3 3 3 6 6 7 6 5 6 5 3 3 3 2 2 2 2 2 3 4 4 4 2 2 2 2 2 3 3 3 3 3 3 4 5 6 7 5
3 3 4 7 8 8 6 6 7 4 2 3 3 3 3 3 2 2 2 2 3 4 4 3 3 3 3 3 4 3 3 3 3 3 3 5 6 7
3 6 7 8 8 5 6 6 4 3 2 3 4 4 3 2 2 1 1 2 2 3 3 4 4 3 3 4 4 3 3 3 3 3 3 3 3 3
3 4 6 7 6 5 4 3 3 3 3 4 3 2 2 2 2 2 2 1 2 2 2 3 4 5 4 5 5 5 4 4 3 3 3 3 3 3
3 2 2 2 2 2 2 2 2 2 3 3 3 3 2 2 2 2 2 2 3 3 2 1 1 2 4 4 5 5 4 4 4 4 3 3 4 4
3 2 3 2 3 3 3 3 3 3 3 3 3 3 3 4 3 2 2 3 4 3 3 2 1 1 2 3 6 6 4 4 4 3 3 4 5 4
3 2 3 3 3 3 3 3 4 4 3 3 4 4 4 4 3 4 3 3 4 4 3 2 3 2 3 4 4 6 4 3 3 3 3 4 5 5
3 3 3 3 3 3 3 3 3 3 3 4 4 4 4 4 4 4 4 5 4 4 3 3 4 4 5 4 3 4 6 5 3 4 3 3 4 6
3 3 3 3 3 3 3 3 3 3 3 3 4 4 4 4 4 4 4 5 4 4 5 5 4 3 2 1 2 3 3 6 6 4 3 2 3 3
4 4 3 3 3 3 3 3 3 3 3 3 4 4 4 4 5 5 5 5 4 5 5 3 2 2 2 4 5 4 4 3 5 7 7 6 4 4
4 4 3 3 3 3 3 3 4 4 4 4 4 4 4 4 4 4 5 5 4 4 3 3 2 2 3 4 4 4 4 4 3 3 4 7 9 11
Wind_Direction
263 261 264 274 283 263 242 213 219 226 229 206 196 205 202 190 189 192 206 279 299 311 315 318 317 314 309 310 309 312 314 316 320 314 305 304 304 299
267 253 256 271 268 254 239 257 239 225 236 210 203 196 201 225 240 220 220 278 287 294 301 307 306 302 302 303 304 303 309 314 314 317 314 311 314 313
267 259 260 274 257 246 248 261 254 228 238 252 209 174 182 206 233 229 225 219 254 289 291 294 296 299 299 300 301 306 310 309 310 309 306 307 310 308
268 266 271 276 253 244 243 250 248 241 231 248 245 207 216 213 220 232 246 251 251 277 280 284 286 293 297 302 304 305 308 309 307 303 302 305 307 305
275 273 276 260 250 250 245 251 254 261 241 241 255 238 230 233 244 256 266 270 275 270 263 270 281 285 288 293 300 302 303 306 306 306 309 311 312 309
272 270 268 248 243 246 246 247 249 247 228 226 253 245 231 220 217 235 255 251 270 290 277 277 279 283 283 291 295 295 295 299 302 304 307 311 314 314
274 275 268 256 257 258 256 245 241 238 232 229 241 251 232 218 228 240 251 266 263 261 275 279 277 269 267 275 279 285 289 289 286 291 302 304 304 302
258 266 266 253 254 266 271 267 257 242 237 239 243 242 247 236 241 236 247 264 273 243 272 286 281 274 275 258 268 276 283 287 288 289 294 296 296 295
250 249 252 250 243 237 256 277 279 271 259 249 244 246 251 241 232 240 239 248 264 261 273 276 272 267 275 277 279 273 274 280 286 289 290 292 293 296
253 248 245 239 241 246 239 251 260 264 262 255 242 252 252 247 238 238 241 263 282 277 250 270 275 271 285 277 271 266 270 272 278 279 281 285 290 295
275 266 254 245 247 254 243 243 257 266 278 271 264 267 263 256 247 227 219 226 265 270 250 251 279 296 292 277 267 267 269 270 271 271 276 283 287 292
279 275 267 267 260 254 247 240 246 254 260 270 273 269 260 244 243 230 215 219 246 257 212 206 254 308 302 292 293 288 274 269 270 271 275 277 281 284
265 269 269 271 270 266 263 255 254 254 249 250 250 246 244 237 236 232 225 217 226 243 211 194 230 244 249 284 294 284 275 275 272 267 267 271 277 276
264 266 268 271 272 274 270 262 263 261 237 230 232 233 237 239 238 230 231 240 245 246 229 211 222 220 229 261 272 277 275 273 270 270 269 271 275 277
269 268 275 275 274 271 266 261 254 234 222 228 232 236 236 233 229 235 237 238 261 259 241 228 221 222 221 236 253 261 277 272 256 251 260 265 262 265
278 269 272 274 276 276 263 248 231 222 222 231 236 238 235 226 229 226 229 223 261 280 256 233 221 214 230 238 237 249 247 248 256 257 259 267 265 253
281 282 276 268 260 253 246 244 233 228 229 230 222 222 224 227 232 221 220 225 237 248 265 269 250 248 245 236 238 241 242 247 245 246 248 270 263 250
280 254 250 243 242 244 242 250 244 234 232 225 223 224 222 221 226 220 217 222 233 241 244 235 218 327 320 279 231 235 239 242 244 237 233 252 267 258
254 242 244 242 243 243 241 242 246 243 232 223 222 225 226 225 218 217 216 222 234 240 240 227 214 207 244 269 266 227 226 234 236 243 235 236 258 268
238 239 243 245 249 252 252 251 252 248 233 229 224 219 219 223 222 221 219 222 229 236 244 235 224 219 227 237 252 262 237 227 226 241 255 262 265 273
246 249 248 247 249 248 250 251 247 246 243 236 231 222 219 219 222 222 223 225 225 228 237 244 243 243 260 234 258 269 258 241 240 240 244 258 271 270
248 250 252 248 251 252 252 254 251 245 243 242 240 232 222 216 220 221 219 218 225 231 244 254 250 231 213 224 245 254 270 276 269 269 260 243 229 234
256 255 255 253 249 248 248 249 249 250 245 241 242 238 226 221 220 219 219 219 222 227 232 243 250 241 237 232 242 250 254 268 278 286 280 267 261 265